Temp
60 61 60 57 55 54 54 56 57 57 56 57 57 57 55 53 53 53 52 52 50 50
60 59 58 57 56 55 55 58 57 58 57 57 57 57 55 53 53 53 52 52 52 50
60 60 58 57 57 57 57 58 59 58 57 57 57 56 54 53 54 53 52 52 52 51
60 60 59 58 58 58 56 57 58 58 58 57 57 56 54 53 54 54 53 53 52 53
61 60 59 58 58 58 58 57 58 59 58 58 58 57 55 55 57 55 54 54 53 53
60 59 58 58 58 59 58 58 58 59 58 59 58 57 57 56 56 56 55 54 53 53
59 59 58 58 59 59 59 59 58 58 59 59 59 59 58 58 56 55 56 55 54 53
60 59 59 59 59 59 58 59 59 58 59 59 59 62 59 58 56 55 54 55 55 54
59 59 58 57 57 57 57 57 57 57 57 57 60 48 50 55 55 56 54 53 54 54
59 58 57 57 57 56 55 56 56 56 56 47 47 48 48 50 52 53 53 53 52 54
57 56 56 55 54 54 54 54 53 50 48 44 46 48 48 49 51 51 52 52 53 52
55 53 53 51 51 51 51 51 51 48 46 43 43 47 46 46 44 46 46 50 52 52
52 51 49 47 48 48 48 50 52 49 46 48 42 46 46 46 44 46 47 48 49 51
49 50 47 46 46 45 46 47 50 51 48 43 43 43 45 46 42 45 46 48 48 49
MSLP
1017.64 1017.73 1017.87 1018.39 1018.82 1018.92 1018.57 1018.36 1018.33 1018.49 1018.81 1018.89 1018.80 1018.80 1018.88 1019.11 1019.06 1019.03 1019.09 1019.03 1019.00 1018.85
1017.22 1017.54 1017.78 1018.01 1018.61 1018.45 1018.36 1018.13 1018.19 1018.33 1018.74 1018.59 1018.55 1018.48 1018.52 1018.72 1018.67 1018.64 1018.66 1018.59 1018.49 1018.53
1017.11 1017.27 1017.57 1017.60 1018.47 1018.35 1018.16 1017.96 1017.95 1018.15 1018.32 1018.32 1018.24 1018.13 1018.26 1018.28 1018.19 1018.30 1018.09 1018.06 1018.08 1017.86
1017.02 1017.13 1017.32 1017.72 1018.10 1018.11 1017.95 1017.67 1017.77 1017.89 1017.97 1018.00 1017.96 1017.79 1017.85 1017.83 1017.74 1017.81 1017.65 1017.53 1017.59 1017.35
1016.96 1017.06 1017.41 1017.67 1017.79 1017.65 1017.61 1017.44 1017.56 1017.57 1017.61 1017.60 1017.51 1017.32 1017.40 1017.40 1017.20 1017.15 1017.11 1016.92 1017.01 1016.85
1016.82 1017.11 1017.35 1017.50 1017.38 1017.23 1017.24 1017.06 1017.16 1017.16 1017.13 1017.05 1016.90 1016.77 1016.68 1016.65 1016.55 1016.45 1016.35 1016.21 1016.23 1016.14
1016.62 1016.88 1017.04 1017.02 1016.69 1016.62 1016.48 1016.54 1016.73 1016.72 1016.70 1016.61 1016.43 1016.27 1016.09 1015.98 1015.86 1015.78 1015.65 1015.50 1015.47 1015.41
1015.95 1016.31 1016.58 1016.35 1016.29 1016.14 1016.22 1016.15 1016.35 1016.45 1016.33 1016.27 1016.22 1015.97 1015.66 1015.46 1015.32 1015.15 1014.98 1014.88 1014.82 1014.71
1016.29 1016.81 1016.61 1016.46 1016.58 1016.50 1016.47 1016.38 1016.47 1016.48 1016.46 1016.47 1016.59 1016.59 1015.85 1015.39 1014.98 1014.68 1014.62 1014.54 1014.17 1014.09
1016.94 1017.00 1016.78 1016.85 1016.79 1016.85 1016.97 1016.70 1016.62 1016.66 1016.70 1017.37 1017.33 1016.89 1016.11 1015.35 1014.76 1014.38 1014.12 1013.91 1013.75 1013.73
1017.03 1017.07 1017.06 1016.96 1017.04 1016.93 1016.76 1016.72 1016.82 1017.15 1017.47 1017.71 1017.59 1016.99 1016.15 1015.60 1015.28 1014.80 1014.25 1013.94 1013.73 1013.57
1017.55 1017.51 1017.35 1017.41 1017.42 1017.13 1017.06 1016.99 1017.13 1017.45 1017.66 1017.71 1017.60 1017.17 1016.43 1015.90 1015.70 1015.40 1015.11 1014.39 1013.84 1013.59
1018.03 1017.97 1017.96 1017.91 1017.62 1017.41 1017.16 1016.91 1017.04 1017.59 1017.76 1017.78 1017.63 1017.12 1016.62 1016.32 1016.05 1015.53 1015.16 1014.64 1014.11 1013.70
1018.31 1018.21 1018.22 1018.03 1017.87 1017.74 1017.44 1017.16 1017.28 1017.57 1017.80 1017.91 1017.56 1017.23 1016.85 1016.55 1016.37 1016.04 1015.58 1015.02 1014.31 1013.80
Wind_Speed
8 5 5 6 4 3 3 4 3 4 4 6 5 4 4 2 4 4 4 6 5 4
7 7 7 7 5 4 4 3 5 5 6 6 5 6 5 4 5 4 4 5 6 4
7 6 4 5 5 6 6 5 5 4 5 6 6 6 5 4 6 5 5 4 5 5
6 6 6 5 5 6 4 5 5 6 6 6 7 7 5 6 7 6 7 5 6 7
6 6 6 6 7 6 6 4 7 6 6 6 7 7 7 7 7 7 7 7 6 7
7 7 7 7 7 6 6 7 7 6 7 7 7 7 8 8 8 8 7 7 7 7
8 8 7 8 7 7 7 7 7 7 7 7 7 7 7 7 8 7 7 7 7 7
7 7 7 8 7 7 6 6 6 6 7 7 6 6 7 7 7 7 7 7 7 7
3 4 4 4 4 4 5 5 5 6 6 7 6 18 17 11 7 7 7 7 7 6
5 5 6 6 6 6 5 4 6 6 7 9 8 16 17 16 6 6 7 8 6 6
6 6 5 5 6 4 3 5 5 6 7 6 6 13 19 18 11 8 7 6 6 6
5 5 6 6 6 4 4 2 3 4 5 5 5 10 14 11 8 9 11 9 7 7
5 6 6 5 5 3 3 4 2 5 4 5 2 8 10 8 4 8 7 9 8 6
7 6 6 5 4 5 6 6 6 5 3 1 2 4 6 9 4 5 7 7 8 7
Wind_Direction
137 146 150 162 180 185 163 175 177 186 200 224 225 235 237 246 254 246 249 249 225 244
165 153 166 159 164 169 162 173 180 200 209 227 235 237 241 247 259 247 253 257 260 241
172 164 156 146 183 184 190 192 198 218 230 241 242 244 238 252 258 250 260 246 257 263
173 168 164 185 208 211 208 213 230 242 246 240 244 248 246 250 253 248 263 265 251 265
164 165 176 196 208 200 219 220 234 244 245 246 245 247 240 249 248 241 256 257 256 258
163 180 192 210 215 211 222 231 244 240 245 251 246 243 241 236 246 244 244 245 232 250
180 202 206 219 213 219 220 228 240 249 254 254 255 250 247 244 246 249 246 237 236 243
196 213 221 222 229 233 237 247 255 263 265 270 274 268 253 252 251 248 246 246 247 244
355 291 276 299 317 341 321 302 292 294 294 310 356 355 344 313 267 253 246 254 257 255
71 51 49 43 53 44 20 16 21 17 19 60 26 2 357 344 291 264 255 249 248 274
58 55 59 54 40 27 23 33 45 48 74 67 26 18 21 14 3 345 317 292 284 278
38 45 49 33 12 354 5 4 77 87 92 83 25 14 31 33 12 1 342 338 339 341
26 57 34 12 360 335 322 308 127 106 93 90 41 16 35 33 10 358 347 335 337 344
27 28 25 2 5 351 10 42 62 101 98 82 22 360 19 24 13 351 339 333 331 329